Weather History for LTBA - May, 2013

Change the Weather History Date:

Monday, May 20, 2013

  Actual Average Record
Temperature  
Mean Temperature 71 °F -  
Max Temperature 80 °F 74 °F 82 °F (2002)
Min Temperature 62 °F 60 °F 53 °F (1999)
Cooling Degree Days 6    
Growing Degree Days 21 (Base 50)    
Moisture  
Dew Point 55 °F    
Average Humidity 53    
Maximum Humidity 73    
Minimum Humidity 28    
Precipitation  
Precipitation 0.00 in - - ()
Sea Level Pressure  
Sea Level Pressure 29.95 in    
Wind  
Wind Speed 4 mph ()    
Max Wind Speed 9 mph    
Max Gust Speed -    
Visibility 6.0 miles    
Events      
Averages and records for this station are not official NWS values.
T = Trace of Precipitation, MM = Missing Value Source: Averaged Metar Reports

Daily Weather History Graph

Daily Weather History Graph

Search for Another Location

Airport or City:

Trip Planner

Search our weather history database for the weather conditions in past years. The results will help you decide how hot, cold, wet, or windy it might be!

Date:

Astronomy

May. 20, 2013 Rise Set
Actual Time 5:42 AM EEST 8:20 PM EEST
Civil Twilight 5:10 AM EEST 8:52 PM EEST
Nautical Twilight 4:31 AM EEST 9:32 PM EEST
Astronomical Twilight 3:46 AM EEST 10:17 PM EEST
Moon 3:04 PM EEST (5/20) 2:29 AM EEST (5/20)
Length of Visible Light 15h 41m
Length of Day
14h 37m
Waxing Gibbous, 72% of the Moon is Illuminated
May 20
Waxing Gibbous
May 25
Full
May 31
Last Quarter
Jun 8
New
Jun 16
First Quarter

Hourly Weather History & Observations

Time (EEST) Temp. Dew Point Humidity Pressure Visibility Wind Dir Wind Speed Gust Speed Precip Events Conditions
12:20 AM 69.8 °F 57.2 °F 64% 29.95 in - Variable 2.3 mph - N/A   Clear
12:50 AM 71.6 °F 57.2 °F 60% 29.95 in - Variable 4.6 mph - N/A   Clear
1:20 AM 75.2 °F 55.4 °F 50% 29.95 in - Variable 3.5 mph - N/A   Clear
1:50 AM 71.6 °F 53.6 °F 53% 29.95 in - ENE 4.6 mph - N/A   Clear
2:20 AM 71.6 °F 53.6 °F 53% 29.95 in - ENE 4.6 mph - N/A   Clear
2:50 AM 68.0 °F 53.6 °F 60% 29.95 in - NNE 3.5 mph - N/A   Clear
3:00 AM 68 °F 54 °F 51% 29.95 in 6 mi NNE 3.5 mph - -  
3:20 AM 66.2 °F 55.4 °F 68% 29.95 in - NNW 4.6 mph - N/A   Clear
3:50 AM 66.2 °F 55.4 °F 68% 29.95 in - North 4.6 mph - N/A   Clear
4:20 AM 66.2 °F 55.4 °F 68% 29.95 in - Calm Calm - N/A   Clear
4:50 AM 64.4 °F 55.4 °F 73% 29.95 in - NNW 2.3 mph - N/A   Clear
5:20 AM 64.4 °F 55.4 °F 73% 29.95 in - Variable 1.2 mph - N/A   Clear
5:50 AM 62.6 °F 53.6 °F 72% 29.95 in - NNW 2.3 mph - N/A   Clear
6:20 AM 64.4 °F 55.4 °F 73% 29.95 in - Variable 2.3 mph - N/A   Clear
6:50 AM 68.0 °F 57.2 °F 68% 29.98 in - Calm Calm - N/A   Clear
7:20 AM 68.0 °F 59.0 °F 73% 29.98 in - SSW 4.6 mph - N/A   Clear
7:50 AM 69.8 °F 57.2 °F 64% 29.98 in - SE 4.6 mph - N/A   Clear
8:20 AM 73.4 °F 57.2 °F 57% 29.98 in - SE 9.2 mph - N/A   Clear
8:50 AM 71.6 °F 59.0 °F 64% 29.98 in - South 8.1 mph - N/A   Clear
9:00 AM 71 °F 58 °F 53% 29.99 in 6 mi South 8.1 mph - -  
9:20 AM 73.4 °F 59.0 °F 61% 29.98 in - SE 9.2 mph - N/A   Clear
9:50 AM 71.6 °F 59.0 °F 64% 29.98 in - SSE 6.9 mph - N/A   Clear
10:20 AM 71.6 °F 57.2 °F 60% 29.98 in - SSE 8.1 mph - N/A   Clear
10:50 AM 71.6 °F 59.0 °F 64% 30.01 in - South 6.9 mph - N/A   Clear
11:20 AM 71.6 °F 57.2 °F 60% 29.98 in - South 6.9 mph - N/A   Clear
11:50 AM 75.2 °F 59.0 °F 57% 29.98 in - South 6.9 mph - N/A   Clear
12:20 PM 73.4 °F 59.0 °F 61% 29.98 in - SSW 6.9 mph - N/A   Clear
12:50 PM 75.2 °F 57.2 °F 53% 29.98 in - SSW 5.8 mph - N/A   Clear
1:20 PM 77.0 °F 59.0 °F 54% 29.98 in - SSW 5.8 mph - N/A   Clear
1:50 PM 75.2 °F 57.2 °F 53% 29.98 in - SW 5.8 mph - N/A   Clear
2:20 PM 77.0 °F 57.2 °F 50% 29.95 in - SW 5.8 mph - N/A   Clear
2:50 PM 77.0 °F 57.2 °F 50% 29.95 in - SW 5.8 mph - N/A   Clear
3:00 PM 78 °F 55 °F 35% 29.95 in 6 mi SW 5.8 mph - -  
3:20 PM 78.8 °F 53.6 °F 42% 29.95 in - WSW 5.8 mph - N/A   Clear
3:50 PM 78.8 °F 51.8 °F 39% 29.95 in - WSW 6.9 mph - N/A   Clear
4:20 PM 80.6 °F 51.8 °F 37% 29.95 in - WSW 5.8 mph - N/A   Clear
4:50 PM 78.8 °F 55.4 °F 44% 29.92 in - WSW 6.9 mph - N/A   Clear
5:20 PM 78.8 °F 51.8 °F 39% 29.92 in - WSW 8.1 mph - N/A   Clear
5:50 PM 78.8 °F 50.0 °F 36% 29.92 in - WSW 5.8 mph - N/A   Clear
6:20 PM 80.6 °F 50.0 °F 34% 29.92 in - WSW 4.6 mph - N/A   Clear
6:50 PM 80.6 °F 51.8 °F 37% 29.92 in - WSW 3.5 mph - N/A   Clear
7:20 PM 78.8 °F 51.8 °F 39% 29.92 in - SSW 3.5 mph - N/A   Clear
7:50 PM 78.8 °F 51.8 °F 39% 29.92 in - Variable 3.5 mph - N/A   Clear
8:20 PM 78.8 °F 51.8 °F 39% 29.92 in - ENE 6.9 mph - N/A   Clear
9:00 PM 79 °F 52 °F 28% 29.93 in 6 mi ENE 6.9 mph - -  
9:50 PM 77.0 °F 53.6 °F 44% 29.92 in - East 6.9 mph - N/A   Clear
10:20 PM 75.2 °F 51.8 °F 44% 29.95 in - ENE 5.8 mph - N/A   Clear
10:50 PM 75.2 °F 51.8 °F 44% 29.95 in - ENE 5.8 mph - N/A   Clear
11:20 PM 73.4 °F 51.8 °F 47% 29.95 in - East 5.8 mph - N/A   Clear
11:50 PM 71.6 °F 53.6 °F 53% 29.92 in - East 4.6 mph - N/A   Clear